| time (UTC) | temp C | wind direction | speed KPH | gust KPH | rain 1hr cm | rain 24hr cm | rain mn cm | humidity % | barometer mb |
| 20260507210051 | 30 | 68 | 6.4 | 17.7 | 0.00 | 0.00 | 0.00 | 72 | 1010.3 |
| 20260507204553 | 30 | 45 | 8.0 | 20.9 | 0.00 | 0.00 | 0.00 | 73 | 1010.3 |
| 20260507203049 | 30 | 34 | 4.8 | 14.5 | 0.00 | 0.00 | 0.00 | 75 | 1010.3 |
| 20260507201553 | 30 | 346 | 1.6 | 17.7 | 0.00 | 0.00 | 0.00 | 75 | 1010.5 |
| 20260507200045 | 29 | 51 | 4.8 | 20.9 | 0.00 | 0.00 | 0.00 | 76 | 1010.6 |
| 20260507194544 | 30 | 312 | 6.4 | 19.3 | 0.00 | 0.00 | 0.00 | 76 | 1010.7 |
| 20260507193047 | 29 | 17 | 4.8 | 16.1 | 0.00 | 0.00 | 0.00 | 77 | 1010.8 |
| 20260507191550 | 29 | 38 | 4.8 | 14.5 | 0.00 | 0.00 | 0.00 | 77 | 1010.7 |
| 20260507190046 | 30 | 19 | 8.0 | 16.1 | 0.00 | 0.00 | 0.00 | 75 | 1010.7 |
| 20260507184539 | 30 | 25 | 1.6 | 14.5 | 0.00 | 0.00 | 0.00 | 75 | 1011.0 |
| 20260507183039 | 30 | 285 | 3.2 | 8.0 | 0.00 | 0.00 | 0.00 | 78 | 1011.0 |
| 20260507181537 | 29 | 16 | 1.6 | 8.0 | 0.00 | 0.00 | 0.00 | 78 | 1011.4 |
| 20260507180037 | 29 | 290 | 3.2 | 8.0 | 0.00 | 0.00 | 0.00 | 80 | 1011.5 |
| 20260507174541 | 30 | 289 | 3.2 | 12.9 | 0.00 | 0.00 | 0.00 | 78 | 1011.7 |
| 20260507173036 | 30 | 71 | 4.8 | 14.5 | 0.00 | 0.00 | 0.00 | 76 | 1011.9 |
| 20260507171536 | 31 | 320 | 3.2 | 8.0 | 0.00 | 0.00 | 0.00 | 75 | 1012.2 |
| 20260507170041 | 30 | 304 | 3.2 | 12.9 | 0.00 | 0.00 | 0.00 | 76 | 1012.3 |
| 20260507164533 | 30 | 293 | 3.2 | 12.9 | 0.00 | 0.00 | 0.00 | 75 | 1012.5 |
| 20260507163029 | 30 | 328 | 3.2 | 11.3 | 0.00 | 0.00 | 0.00 | 78 | 1012.6 |
| 20260507161529 | 30 | 281 | 3.2 | 11.3 | 0.00 | 0.00 | 0.00 | 76 | 1012.9 |
| 20260507160032 | 30 | 287 | 3.2 | 12.9 | 0.00 | 0.00 | 0.00 | 76 | 1013.0 |
| 20260507154528 | 30 | 281 | 3.2 | 11.3 | 0.00 | 0.00 | 0.00 | 76 | 1013.0 |
| 20260507153027 | 30 | 322 | 1.6 | 9.7 | 0.00 | 0.00 | 0.00 | 77 | 1013.1 |
| 20260507151527 | 28 | 264 | 1.6 | 9.7 | 0.00 | 0.00 | 0.00 | 77 | 1013.1 |
| 20260507150031 | 29 | 270 | 1.6 | 11.3 | 0.00 | 0.00 | 0.00 | 75 | 1013.2 |
| 20260507144526 | 30 | 318 | 3.2 | 8.0 | 0.00 | 0.00 | 0.00 | 73 | 1013.1 |
| 20260507143028 | 29 | 295 | 3.2 | 11.3 | 0.00 | 0.00 | 0.00 | 75 | 1013.2 |
| 20260507141524 | 30 | 297 | 0.0 | 8.0 | 0.00 | 0.00 | 0.00 | 77 | 1013.3 |
| 20260507140023 | 30 | 331 | 1.6 | 8.0 | 0.00 | 0.00 | 0.00 | 73 | 1013.3 |
| 20260507134521 | 30 | 278 | 1.6 | 8.0 | 0.00 | 0.00 | 0.00 | 71 | 1013.3 |
| 20260507133019 | 29 | 21 | 1.6 | 6.4 | 0.00 | 0.00 | 0.00 | 73 | 1013.2 |
| 20260507131525 | 28 | 359 | 3.2 | 8.0 | 0.00 | 0.00 | 0.00 | 75 | 1013.2 |
| 20260507130017 | 28 | 20 | 0.0 | 6.4 | 0.00 | 0.00 | 0.00 | 77 | 1013.1 |
| 20260507124513 | 28 | 25 | 1.6 | 4.8 | 0.00 | 0.00 | 0.00 | 76 | 1013.2 |
| 20260507123010 | 27 | 23 | 0.0 | 3.2 | 0.00 | 0.00 | 0.00 | 78 | 1013.0 |
| 20260507121509 | 27 | 21 | 0.0 | 6.4 | 0.00 | 0.00 | 0.00 | 79 | 1012.8 |
| 20260507120022 | 27 | 30 | 1.6 | 6.4 | 0.00 | 0.00 | 0.00 | 79 | 1012.5 |
| 20260507114504 | 26 | 86 | 1.6 | 4.8 | 0.00 | 0.00 | 0.00 | 81 | 1012.4 |
| 20260507113005 | 25 | 98 | 3.2 | 6.4 | 0.00 | 0.00 | 0.00 | 83 | 1012.2 |
| 20260507111507 | 25 | 98 | 0.0 | 4.8 | 0.00 | 0.00 | 0.00 | 84 | 1012.2 |
| 20260507110002 | 24 | 64 | 1.6 | 3.2 | 0.00 | 0.00 | 0.00 | 87 | 1012.1 |
| 20260507104601 | 23 | 94 | 1.6 | 3.2 | 0.00 | 0.00 | 0.00 | 87 | 1012.0 |
| 20260507103059 | 23 | 115 | 0.0 | 1.6 | 0.00 | 0.00 | 0.00 | 89 | 1012.0 |
| 20260507101605 | 22 | 106 | 0.0 | 1.6 | 0.00 | 0.00 | 0.00 | 92 | 1011.9 |
| 20260507100058 | 22 | 115 | 1.6 | 3.2 | 0.00 | 0.00 | 0.00 | 93 | 1011.8 |
| 20260507094557 | 22 | 93 | 0.0 | 0.0 | 0.00 | 0.00 | 0.00 | 93 | 1011.6 |
| 20260507093058 | 22 | 96 | 0.0 | 3.2 | 0.00 | 0.00 | 0.00 | 94 | 1011.3 |
| 20260507091557 | 22 | 107 | 0.0 | 3.2 | 0.00 | 0.00 | 0.00 | 94 | 1011.3 |
| 20260507090055 | 22 | 105 | 0.0 | 1.6 | 0.00 | 0.00 | 0.00 | 94 | 1011.3 |
| 20260507084551 | 22 | 96 | 0.0 | 1.6 | 0.00 | 0.00 | 0.00 | 95 | 1011.4 |
| 20260507083048 | 22 | 131 | 0.0 | 1.6 | 0.00 | 0.00 | 0.00 | 95 | 1011.7 |
| 20260507081549 | 23 | 120 | 0.0 | 1.6 | 0.00 | 0.00 | 0.00 | 95 | 1011.6 |
| 20260507080049 | 23 | 90 | 0.0 | 1.6 | 0.00 | 0.00 | 0.00 | 95 | 1011.6 |
| 20260507074558 | 23 | 131 | 0.0 | 1.6 | 0.00 | 0.00 | 0.00 | 95 | 1011.5 |
| 20260507073042 | 23 | 96 | 0.0 | 4.8 | 0.00 | 0.00 | 0.00 | 95 | 1011.5 |
| 20260507071542 | 23 | 102 | 0.0 | 4.8 | 0.00 | 0.00 | 0.00 | 95 | 1011.5 |
| 20260507070040 | 23 | 92 | 0.0 | 1.6 | 0.00 | 0.00 | 0.00 | 95 | 1011.7 |
| 20260507064537 | 23 | 120 | 0.0 | 6.4 | 0.00 | 0.00 | 0.00 | 95 | 1011.8 |
| 20260507063035 | 23 | 112 | 0.0 | 3.2 | 0.00 | 0.00 | 0.00 | 94 | 1011.9 |
| 20260507061535 | 24 | 88 | 0.0 | 4.8 | 0.00 | 0.00 | 0.00 | 94 | 1012.1 |
| 20260507060030 | 25 | 124 | 0.0 | 3.2 | 0.00 | 0.00 | 0.00 | 93 | 1012.3 |
| 20260507054526 | 25 | 105 | 0.0 | 0.0 | 0.00 | 0.00 | 0.00 | 92 | 1012.5 |
| 20260507053025 | 25 | 112 | 0.0 | 0.0 | 0.00 | 0.00 | 0.00 | 91 | 1012.7 |
| 20260507051524 | 25 | 86 | 0.0 | 1.6 | 0.00 | 0.00 | 0.00 | 91 | 1012.7 |
| 20260507050026 | 26 | 89 | 0.0 | 1.6 | 0.00 | 0.00 | 0.00 | 91 | 1012.9 |
| 20260507044518 | 26 | 93 | 0.0 | 0.0 | 0.00 | 0.00 | 0.00 | 92 | 1013.1 |
| 20260507043016 | 26 | 136 | 0.0 | 3.2 | 0.00 | 0.00 | 0.00 | 92 | 1013.3 |
| 20260507041515 | 26 | 231 | 0.0 | 3.2 | 0.00 | 0.00 | 0.00 | 92 | 1013.5 |
| 20260507040013 | 26 | 214 | 0.0 | 4.8 | 0.00 | 0.00 | 0.00 | 92 | 1013.7 |
| 20260507034513 | 26 | 200 | 1.6 | 3.2 | 0.00 | 0.00 | 0.00 | 91 | 1013.9 |
| 20260507033019 | 26 | 205 | 0.0 | 3.2 | 0.00 | 0.00 | 0.00 | 92 | 1013.8 |
| 20260507031511 | 26 | 115 | 0.0 | 0.0 | 0.00 | 0.00 | 0.00 | 92 | 1013.9 |
| 20260507030011 | 26 | 115 | 0.0 | 0.0 | 0.00 | 0.00 | 0.00 | 91 | 1014.1 |
| 20260507024510 | 26 | 143 | 0.0 | 0.0 | 0.00 | 0.00 | 0.00 | 91 | 1014.1 |
| 20260507023009 | 26 | 143 | 0.0 | 0.0 | 0.00 | 0.00 | 0.00 | 90 | 1014.0 |
| 20260507021509 | 26 | 124 | 0.0 | 0.0 | 0.00 | 0.00 | 0.00 | 90 | 1014.0 |
| 20260507020011 | 26 | 133 | 0.0 | 0.0 | 0.00 | 0.00 | 0.00 | 90 | 1013.9 |
| 20260507014508 | 26 | 133 | 0.0 | 0.0 | 0.00 | 0.00 | 0.00 | 90 | 1013.7 |
| 20260507013007 | 26 | 140 | 0.0 | 0.0 | 0.00 | 0.00 | 0.00 | 90 | 1013.6 |
| 20260507011506 | 26 | 140 | 0.0 | 0.0 | 0.00 | 0.00 | 0.00 | 90 | 1013.5 |
| 20260507010007 | 26 | 120 | 0.0 | 1.6 | 0.00 | 0.00 | 0.00 | 89 | 1013.4 |
| 20260507004507 | 26 | 102 | 0.0 | 3.2 | 0.00 | 0.00 | 0.00 | 88 | 1013.3 |
| 20260507003005 | 26 | 94 | 0.0 | 4.8 | 0.00 | 0.00 | 0.00 | 88 | 1013.4 |
| 20260507001506 | 27 | 110 | 0.0 | 0.0 | 0.00 | 0.00 | 0.00 | 87 | 1013.2 |
| 20260507000005 | 27 | 108 | 0.0 | 3.2 | 0.00 | 0.00 | 0.00 | 86 | 1013.0 |
| 20260506234504 | 27 | 75 | 0.0 | 4.8 | 0.00 | 0.00 | 0.00 | 85 | 1012.9 |
| 20260506233004 | 27 | 32 | 1.6 | 4.8 | 0.00 | 0.00 | 0.00 | 83 | 1012.8 |
| 20260506231504 | 27 | 2 | 0.0 | 9.7 | 0.00 | 0.00 | 0.00 | 81 | 1012.6 |
| 20260506230003 | 27 | 27 | 0.0 | 8.0 | 0.00 | 0.00 | 0.00 | 80 | 1012.3 |
| 20260506224503 | 27 | 23 | 1.6 | 8.0 | 0.00 | 0.00 | 0.00 | 80 | 1012.1 |
| 20260506223002 | 28 | 334 | 1.6 | 9.7 | 0.00 | 0.00 | 0.00 | 80 | 1012.0 |
| 20260506221501 | 28 | 299 | 0.0 | 8.0 | 0.00 | 0.00 | 0.00 | 81 | 1011.9 |
| 20260506220005 | 28 | 23 | 1.6 | 6.4 | 0.00 | 0.00 | 0.00 | 81 | 1011.7 |
| 20260506214604 | 28 | 359 | 3.2 | 9.7 | 0.00 | 0.00 | 0.00 | 80 | 1011.6 |
| 20260506213122 | 29 | 327 | 3.2 | 9.7 | 0.00 | 0.00 | 0.00 | 78 | 1011.5 |
| 20260506211600 | 29 | 295 | 1.6 | 8.0 | 0.00 | 0.00 | 0.00 | 78 | 1011.4 |